Regional Weather Roundup
Issued by NWS

Home | Current Version | Previous Version | Text Only | Print | Product List | Glossary On
Versions: 1 2 3 4 5 6 7 8 9 10 11 12 13 14 15 16 17 18 19 20 21 22 23 24 25 26 27 28 29 30 31 32 33 34 35 36 37 38 39 40 41 42 43 44 45 46 47 48 49 50
000
ASUS42 KTBW 242016
RWRFL
FLORIDA REGIONAL WEATHER ROUNDUP
NATIONAL WEATHER SERVICE TAMPA BAY RUSKIN FL
400 PM EDT FRI JUN 24 2016

NOTE: "FAIR" INDICATES FEW OR NO CLOUDS BELOW 12,000 FEET WITH NO
SIGNIFICANT WEATHER AND/OR OBSTRUCTIONS TO VISIBILITY.

FLZ001>010-012>015-112-114-115-242100-
PANHANDLE FLORIDA

CITY           SKY/WX    TMP DP  RH WIND       PRES   REMARKS
PENSACOLA      SUNNY     90  71  53 S13       30.07F HX  96
MILTON NAS     MOSUNNY   91  71  51 CALM      30.07F HX  97
CRESTVIEW      SUNNY     94  64  37 VRB6      30.07F HX  95
DUKE FIELD     MOSUNNY   92  70  47 S9        30.05F HX  97
VALPARAISO     MOSUNNY   88  71  57 S13       30.07F
MARY ESTHER    SUNNY     89  70  54 S14       30.06F
PANAMA CITY    FAIR      89  70  53 SW9       30.06F
TYNDALL AFB    SUNNY     87  72  60 W13       30.08F
APALACHICOLA   SUNNY     91  71  51 SW16      30.07F HX  97

STATION/POSITION SKY/WX   TEMP    WIND        PRES    WAVE   SWELL
                          AIR SEA DIR/SP/G            HT/PER HT/PER
                          (F)     (DEG/KT/KT) (MB)    (FT/S) (FT/S)
30.1N   87.6W              83 87  220/  8/  8 1018.2F   1/ 8
29.2N   88.2W              83 85  350/  2/  4 1019.0F
28.8N   86.0W              83 86  360/  4/  6 1019.6F   1
PANAMA CITY BEAC           82 84  240/ 11/ 12 1019.5F
TOWER C                    82     270/  9/ 10 1019.6F
28.5N   84.5W              83 86   20/  4/  6 1019.3F   1

$$
FLZ011-016>038-118-127-128-134-139-239-242100-
NORTH FLORIDA

CITY           SKY/WX    TMP DP  RH WIND       PRES   REMARKS
MARIANNA       SUNNY     92  68  45 MISG      30.04F HX  96
TALLAHASSEE    PTSUNNY   95  64  35 W6        30.05F HX  97
PERRY          SUNNY     93  63  36 S6        30.07F
LIVE OAK       FAIR      97  70  41 W7        30.06F HX 103
CROSS CITY       N/A     93  69  45 SW7       30.06F HX  98
LAKE CITY      FAIR      91  70  49 SW6       30.06F HX  97
GAINESVILLE    SUNNY     93  71  48 MISG      30.06F HX 100
WILLISTON      FAIR      97  73  46 SW9       30.06F HX 107
MAYPORT NAS    MOSUNNY   92  75  57 SE13      30.04F HX 103
JACKSONVILLE   MOSUNNY   97  69  40 SW10      30.02F HX 103
JAX NAS        PTSUNNY   97  67  37 SW9       30.05F HX 101
JAX CECIL      MOSUNNY   95  72  46 SW6       30.04F HX 103
FERNANDINA BEA FAIR      91  79  66 SE9       30.03F HX 107
ST AUGUSTINE   MOSUNNY   88  79  74 SE10      30.06F HX 103
PALM COAST     PTSUNNY   91  79  66 E12       30.05F HX 107

STATION/POSITION SKY/WX   TEMP    WIND        PRES    WAVE   SWELL
                          AIR SEA DIR/SP/G            HT/PER HT/PER
                          (F)     (DEG/KT/KT) (MB)    (FT/S) (FT/S)
SHELL POINT                86     180/ 10/ 13 1017.6
KEATON BEACH               84     220/  8/  9 1018.2F
CEDAR KEY                  86     280/  9/ 12 1019.1F
FERNANDINA                 90 84  100/  7/ 10 1017.6F
30.7N   81.3W                 84                N/A     2/ 9
MAYPORT                    89 84  120/  6/ 10 1018.0F
31.4N   80.9W              83 83  160/  8/ 10 1017.1F   2/ 9   2/ 9
ST AUGUSTINE               83 85  130/ 11/ 11 1018.5F

$$
FLZ040-043>046-052-053-057-058-063-144-242100-
INTERIOR CENTRAL FLORIDA

CITY           SKY/WX    TMP DP  RH WIND       PRES   REMARKS
OCALA          MOSUNNY   95  72  46 NW8       30.06F HX 103
THE VILLAGES     N/A     95  73  49 MISG      29.95F HX 105
LEESBURG       SUNNY     95  69  42 CALM      30.06F HX 100
SANFORD        PTSUNNY   96  71  44 VRB3      30.04F HX 103
ORLANDO EXEC   PTSUNNY   95  70  44 CALM      30.05F HX 101
ORLANDO INTL   MOSUNNY   94  69  44 VRB3      30.05F HX  99
KISSIMMEE        N/A     94  72  48 VRB6      30.06F HX 102
WINTER HAVEN   SUNNY     96  66  37 CALM      30.06F HX  99
LAKELAND       PTSUNNY   93  72  49 CALM      30.06F HX 100
BARTOW         MOSUNNY   93  68  43 VRB3      30.06F HX  97
OKEECHOBEE     CLOUDY    88  73  62 E3        30.08F HX  96

$$
FLZ041-047-054-059-064-141-147-242100-
EAST CENTRAL FLORIDA

CITY           SKY/WX    TMP DP  RH WIND       PRES   REMARKS
ORMOND BEACH   RAIN      82  77  83 SE6       30.06S FOG
DAYTONA BEACH  PTSUNNY   89  73  59 E8        30.05F HX  97
DELAND           N/A     90  75  62 E7        30.06F HX 100
NEW SMYRNA BEA MOSUNNY   88  75  66 E16       30.07F HX  97
JFK SPACE CTR  SUNNY     92  76  58 SE12      30.05F HX 105
TITUSVILLE     PTSUNNY   91  73  55 E12       30.06F HX 100
CAPE CANAVERAL SUNNY     91  74  58 SE15      30.05F HX 100
PATRICK AFB    SUNNY     89  78  70 SE18      30.06F HX 104
MELBOURNE      MOSUNNY   89  75  63 SE13      30.07F HX  99
VERO BEACH     CLOUDY    88  73  61 SE10      30.08F HX  95
FT PIERCE      MOSUNNY   88  73  61 SE9       30.07F HX  95
STUART         MOSUNNY   90  77  66 SE10      30.09F HX 102

STATION/POSITION SKY/WX   TEMP    WIND        PRES    WAVE   SWELL
                          AIR SEA DIR/SP/G            HT/PER HT/PER
                          (F)     (DEG/KT/KT) (MB)    (FT/S) (FT/S)
28.5N   80.2W              84 85  150/ 10/ 12 1019.2F
28.9N   78.5W              82 84  210/  6/  8 1019.6F
TRIDENT PIER               90 86  130/  8/ 12 1018.7F
28.4N   80.5W                 86                N/A     2/ 3
27.5N   80.2W                 84                N/A     1/ 8

$$
FLZ050-056-061-142-242-148-248-149-249-151-251-155-255-
160-260-242100-
WEST CENTRAL FLORIDA

CITY           SKY/WX    TMP DP  RH WIND       PRES   REMARKS
CRYSTAL RIVER  FAIR      90  72  55 W12G17    30.07F HX  96
INVERNESS      FAIR      93  75  55 NW6       30.06S HX 104
BROOKSVILLE    MOSUNNY   91  73  55 W13G23    30.07S HX  99
ZEPHYRHILLS    FAIR      92  71  50 W12G18    30.06F HX  98
CLEARWATER AIR FAIR      86  73  66 NW9       30.07F
ST PETE CLEARW MOSUNNY   86  74  67 N6        30.07F
TAMPA INTL     CLOUDY    85  72  65 NW6       30.07F
TAMPA EXEC     MOSUNNY   91  73  55 NW5       30.07S HX 100
PLANT CITY     MOSUNNY   93  77  59 W8        30.08F HX 107
MACDILL AFB    MOSUNNY   88  76  67 NW7       30.06  HX  99
PETER O KNIGHT MOSUNNY   90  75  62 N7        30.06F HX 100
ST PETERSBURG  PTSUNNY   90  73  57 N7        30.04F HX  98
SARASOTA       MOSUNNY   90  77  65 NW10      30.05F HX 103
VENICE         NOT AVBL

STATION/POSITION SKY/WX   TEMP    WIND        PRES    WAVE   SWELL
                          AIR SEA DIR/SP/G            HT/PER HT/PER
                          (F)     (DEG/KT/KT) (MB)    (FT/S) (FT/S)
27.3N   84.2W                 86                N/A
CLEARWATER BEACH           85 87  330/  7/  9 1019.0F
MIDDLE TAMPA BAY                  290/ 12/ 13 1019.0F
VENICE                     85 88  300/ 10/ 11 1017.7F

$$
FLZ066-069-070-075>078-162-262-165-265-242100-
SOUTHWEST FLORIDA AND KEYS

CITY           SKY/WX    TMP DP  RH WIND       PRES   REMARKS
PUNTA GORDA    SUNNY     93  75  55 N8        30.06F HX 104
FT MYERS       LGT RAIN  79  73  82 S8        30.06F
SOUTHWEST INTL CLOUDY    80  72  76 E3        30.07F
NAPLES         CLOUDY    85  75  72 CALM      30.07F
MARCO ISLAND   MOSUNNY   84  73  70 CALM      30.08S
MARATHON       MOSUNNY   89  77  67 E8        30.06F HX 101
KEY WEST NAS   PTSUNNY   90  74  59 E10       30.06S HX  99
KEY WEST INTL  MOSUNNY   87  76  69 E7        30.06S HX  97

STATION/POSITION SKY/WX   TEMP    WIND        PRES    WAVE   SWELL
                          AIR SEA DIR/SP/G            HT/PER HT/PER
                          (F)     (DEG/KT/KT) (MB)    (FT/S) (FT/S)
NAPLES                        87              1018.7F
26.0N   85.6W              83 86   60/  6/  6 1019.3F   1
DRY TORTUGAS               83      60/ 10/ 11 1018.3F
SAND KEY                   83      40/ 10/ 11 1018.4S
LONG KEY                   85 88  110/  8/  9 1018.5S
MOLASSES REEF              84 85  120/  9/ 10 1018.7

$$
FLZ067-068-071>074-168-172>174-242100-
SOUTHEAST FLORIDA

CITY           SKY/WX    TMP DP  RH WIND       PRES   REMARKS
W PALM BEACH   MOSUNNY   88  74  63 E12       30.08F HX  96
BOCA RATON     MOSUNNY   88  77  70 SE14      30.07F HX 100
FT LAUDER-EXEC MOSUNNY   88  72  58 E13       30.06F
FT LAUDERDALE  MOSUNNY   88  76  67 E12G22    30.06F HX  99
POMPANO BEACH  SUNNY     88  75  65 E14       30.06F HX  97
PEMBROKE PINES MOSUNNY   90  73  57 SE15      30.07F HX  98
OPA LOCKA      MOSUNNY   90  73  57 E12       30.07F HX  98
MIAMI          MOSUNNY   89  73  59 E13       30.06F HX  97
WEST KENDALL   MOSUNNY   89  74  60 SE15G22   30.06F HX  98
HOMESTEAD      DRIZZLE   90  77  66 SE12      30.07S HX 102

STATION/POSITION SKY/WX   TEMP    WIND        PRES    WAVE   SWELL
                          AIR SEA DIR/SP/G            HT/PER HT/PER
                          (F)     (DEG/KT/KT) (MB)    (FT/S) (FT/S)
PORT EVERGLADES            87      80/  6/  9 1018.9F
VIRGINIA KEY               85 86  100/  9/ 11 1019.1F
LAKE WORTH                 84 85  110/  8/  9 1018.9F
FOWEY ROCKS                84 85  110/ 12/ 12 1018.8F
SETTLEMENT POINT           83      70/  8/  9 1019.9F

$$




USA.gov is the U.S. government's official web portal to all federal, state and local government web resources and services.